Hourly Data Report for February 12, 2017

All times are specified in Local Standard Time (LST). Add 1 hour to adjust for Daylight Saving Time where and when it is observed.

TORONTO INTL A
ONTARIO

43°40'36.000" N
79°37'50.000" W
173.40 m
6158731
71624
YYZ

Download Data

Hourly Data (February 2017)
Hourly Data Report for February 12, 2017
TIME Temp Definition
°C
Dew Point Definition
°C
Rel Hum Definition
%
Wind Dir Definition
10's deg

Wind Spd Definition
km/h
Visibility Definition
km
Stn Press Definition
kPa
Hmdx Definition


Wind Chill Definition


Weather Definition


00:00 1.5 -0.8 85 11 13 16.1 99.62     LegendNANA
01:00 0.2 -1.3 90 10 20 16.1 99.61     Cloudy
02:00 -0.8 -2.1 91 9 18 16.1 99.54   -6 LegendNANA
03:00 -1.6 -2.6 93 9 19 19.3 99.49   -7 LegendNANA
04:00 -2.3 -3.1 94 11 20 14.5 99.50   -8 Cloudy
05:00 -2.8 -3.6 94 6 14 1.6 99.35   -8 Snow
06:00 -3.5 -4.6 92 9 13 1.6 99.25   -8 Snow
07:00 -4.0 -5.1 92 9 13 2.8 99.18   -9 Snow
08:00 -4.4 -5.5 92 3 13 1.6 99.09   -9 Snow
09:00 -4.5 -5.6 92 5 11 1.2 98.97   -9 Snow
10:00 -4.6 -5.7 92 36 17 1.6 98.91   -10 Snow
11:00 -4.0 -5.3 91 1 14 3.2 98.76   -9 Snow,Ice Pellets
12:00 -3.4 -4.7 91 34 16 1.6 98.78   -9 Snow
13:00 -2.6 -3.9 91 33 14 1.6 98.68   -7 Snow
14:00 -2.0 -3.3 91 31 9 4.0 98.53   -5 Snow
15:00 -1.4 -3.4 86 36 2 16.1 98.44   -2 LegendNANA
16:00 -0.7 -2.6 87 18 7 9.7 98.44   -3 Snow
17:00 -1.3 -2.3 93 17 8 2.8 98.41   -4 Snow
18:00 -0.6 -1.3 95 15 7 6.4 98.36   -3 LegendNANA
19:00 1.6 0.1 90 26 22 12.9 98.37     Cloudy
20:00 1.4 -2.9 73 30 49 24.1 98.43     LegendNANA
21:00 0.4 -3.7 74 30 51 24.1 98.54     LegendNANA
22:00 -0.8 -5.4 71 30 49 24.1 98.70   -9 Mostly Cloudy
23:00 -1.5 -5.5 74 29 38 19.3 98.78   -9 LegendNANA

Notes on Data Quality.

Legend

  • E = Estimated
  • M = Missing
  • NA = Not Available
Date modified: